RH
51 44 46 64 52 48 65 69 80 61 76 53 46 68 62 71 75 74 67 61 57 57 64 66 69 70 73 71 68 69 69 65 68 71 73 74 75 77 76 77 87 88 67 80
86 46 43 60 52 58 61 61 65 72 76 52 45 43 58 54 62 72 67 60 55 54 60 63 66 68 70 71 68 68 66 70 72 74 76 80 81 82 81 74 82 91 79 90
78 58 60 61 52 50 58 53 54 67 59 49 41 34 38 51 49 66 64 59 55 57 59 64 66 64 64 62 60 62 69 75 77 78 81 86 80 76 80 79 71 73 79 87
88 74 88 54 39 36 44 44 46 39 31 32 27 44 62 49 57 63 61 59 56 59 63 67 64 63 60 57 59 63 72 77 81 87 84 88 92 90 81 78 85 90 74 84
94 87 66 47 52 46 56 56 44 50 47 41 38 62 78 77 60 62 62 74 68 68 74 71 66 70 60 59 64 70 76 80 85 84 82 82 84 86 95 89 83 93 85 76
97 96 83 63 40 31 40 64 49 48 51 57 53 68 91 91 80 88 81 81 86 87 87 81 80 73 59 69 70 75 79 85 85 82 80 79 81 82 81 98 90 78 81 84
85 88 86 64 42 34 59 66 42 49 63 70 90 97 98 97 97 91 92 96 95 93 92 92 80 78 79 72 74 74 82 87 80 78 78 82 79 84 85 93 98 91 79 70
84 94 92 48 44 52 68 58 51 57 92 98 98 98 98 98 98 98 97 98 99 99 100 100 94 76 76 74 75 76 78 80 84 90 85 80 83 90 81 81 94 94 84 71
85 86 65 57 54 55 61 60 53 82 97 96 98 97 98 98 97 97 97 97 97 99 100 100 98 80 76 83 77 78 80 80 80 80 81 83 84 77 81 86 79 89 88 75
65 56 56 52 52 54 56 54 61 85 96 96 98 97 98 97 97 97 96 93 94 97 97 98 86 78 83 84 76 79 82 77 72 75 71 66 70 72 73 81 94 81 83 76
95 81 66 66 61 84 79 58 75 87 94 96 97 98 96 97 96 95 95 94 94 89 84 79 73 75 80 85 75 71 78 80 74 70 71 60 37 40 51 62 76 92 86 78
90 77 77 72 81 76 71 66 88 95 96 88 87 94 91 93 92 91 89 87 86 79 71 66 64 69 70 69 72 71 60 58 59 52 70 63 79 86 86 86 87 84 81 73
90 77 84 69 72 63 85 82 84 83 86 90 84 86 87 91 90 88 87 86 78 65 56 56 61 62 61 62 55 50 53 57 70 63 48 66 80 85 91 92 91 90 81 78
58 62 62 54 68 50 58 59 71 73 78 82 79 83 87 88 90 93 96 98 79 62 60 56 51 50 44 44 45 49 49 49 50 62 73 78 85 86 82 88 92 93 84 80
59 57 55 52 52 52 60 63 70 74 77 76 80 85 86 91 95 99 99 90 79 72 73 58 53 60 50 45 47 49 54 63 67 72 74 71 74 76 77 90 96 86 65 58
59 54 52 56 56 55 62 70 77 77 76 80 83 89 95 98 99 99 96 92 85 90 81 64 69 64 56 51 58 66 70 75 79 78 75 76 71 68 66 71 94 84 63 60
68 64 61 61 64 59 60 68 71 73 80 86 90 93 86 96 99 98 98 97 96 94 93 93 76 67 61 62 66 73 76 76 69 77 72 67 65 66 66 66 80 72 67 72
61 61 60 64 71 68 67 77 78 77 81 78 81 81 85 97 94 97 97 96 96 96 96 94 63 65 67 72 71 78 76 74 71 69 67 64 62 64 65 65 73 77 76 82
60 65 69 70 70 77 81 84 81 76 78 78 84 90 97 93 96 97 96 96 97 97 95 70 63 65 76 84 76 64 68 72 68 68 63 59 70 74 73 75 77 79 87 85
89 82 80 84 76 83 94 89 84 86 82 80 93 97 98 100 98 97 97 96 95 90 79 64 67 80 75 73 72 69 66 61 62 61 64 70 70 74 76 77 88 90 91 91
96 94 94 94 96 95 90 84 84 90 90 90 93 94 96 100 97 96 97 94 96 85 68 68 78 81 68 64 66 67 63 66 70 67 78 83 84 83 82 83 86 91 92 96
92 96 98 98 98 100 92 87 84 91 98 97 98 98 98 98 98 97 94 90 95 80 62 76 80 74 66 68 73 76 73 65 70 68 78 74 80 82 85 85 94 92 93 94
80 80 94 95 96 99 99 94 91 91 96 95 96 98 95 96 95 95 95 97 95 82 66 79 74 68 62 75 78 84 81 83 84 84 87 90 89 88 89 86 91 91 95 95
83 80 86 91 90 97 97 100 98 96 95 93 90 91 92 100 100 97 85 94 94 76 79 78 72 65 63 83 84 83 81 84 86 90 89 85 85 87 90 92 90 94 94 88
86 85 96 93 90 91 96 96 99 100 99 99 96 95 91 91 88 99 90 95 93 75 82 82 68 64 72 83 85 83 83 88 88 84 85 86 88 83 86 86 82 87 97 96
85 84 83 84 85 91 94 98 95 99 99 100 100 98 95 92 96 96 94 95 92 82 86 77 69 73 84 86 87 86 92 92 90 91 85 87 93 91 91 98 97 88 85 85
88 88 87 86 91 91 88 94 98 98 98 96 95 98 96 96 99 96 94 98 97 88 89 79 74 90 91 90 90 88 92 92 94 94 92 93 92 90 91 93 89 81 90 94
Wind_Speed
4 10 9 7 9 6 2 3 5 4 5 5 7 10 16 18 16 15 16 16 15 14 17 22 23 22 17 12 9 11 8 12 14 14 14 14 14 15 12 12 17 18 22 25
6 7 7 4 10 11 8 9 7 9 14 8 12 10 14 16 23 19 21 21 19 17 23 22 23 24 20 16 13 16 16 15 14 14 14 14 13 14 14 16 17 19 23 25
5 10 12 4 10 11 11 12 8 10 12 11 13 17 12 17 15 20 22 22 18 19 23 24 24 25 18 21 17 16 15 14 12 11 13 14 14 15 16 19 21 22 23 27
4 7 5 7 12 17 17 17 14 15 11 10 9 3 5 0 17 18 18 18 16 22 26 27 31 25 22 22 22 20 18 16 14 15 15 15 16 16 17 19 21 23 25 27
1 3 7 10 10 3 9 10 1 2 8 7 5 5 4 7 4 16 18 12 22 29 31 31 30 25 23 24 22 18 15 14 14 14 15 15 16 15 15 17 21 23 24 25
3 3 4 5 4 5 3 5 6 8 5 3 5 2 3 7 9 14 21 28 31 32 32 34 30 23 28 24 23 18 16 15 15 16 17 16 16 15 15 15 20 22 23 23
7 6 5 9 14 11 2 7 5 3 2 3 3 1 6 10 13 18 24 28 31 29 27 26 28 25 25 27 24 19 19 17 17 17 16 15 15 14 14 15 18 21 23 23
5 7 8 2 1 2 5 2 1 3 4 9 11 8 8 10 12 14 21 24 25 26 25 25 24 28 28 26 23 23 22 18 18 16 15 15 15 12 14 18 20 20 20 22
8 6 6 6 7 8 7 5 4 5 7 13 13 9 10 10 12 12 19 21 23 25 24 23 22 26 24 23 24 20 22 20 18 17 15 15 16 18 19 19 18 18 19 19
3 3 10 9 5 7 6 5 6 7 12 12 11 12 12 10 11 11 18 19 22 24 22 21 22 23 26 26 23 22 22 20 21 17 18 14 13 14 15 15 17 15 16 15
3 11 6 5 2 4 6 5 8 9 8 12 12 11 13 12 12 16 18 20 21 22 21 22 24 24 26 25 24 25 23 20 21 21 20 18 18 18 18 15 13 15 14 13
4 4 10 4 4 3 5 6 12 14 9 10 9 11 12 10 16 18 19 20 19 21 22 25 25 28 27 27 26 24 25 22 20 19 19 20 20 17 13 15 14 13 11 11
5 6 5 4 5 5 6 8 14 12 13 13 12 15 15 11 15 19 18 18 20 21 26 28 27 24 25 26 29 26 24 22 23 20 22 19 16 18 18 11 10 9 10 9
5 5 3 4 2 4 7 7 20 17 18 18 16 16 16 15 18 17 16 17 22 26 27 29 26 22 23 27 26 25 23 20 20 22 20 19 15 14 14 15 14 12 7 7
6 6 2 1 6 6 6 11 12 13 12 11 17 17 17 15 14 15 21 24 26 28 28 29 26 21 20 23 28 26 24 21 18 16 14 13 12 11 10 11 17 13 6 7
6 6 3 6 6 6 6 8 11 10 10 11 14 16 15 16 15 21 21 26 25 20 24 27 24 21 21 24 25 24 22 19 18 16 16 13 13 13 13 14 19 11 9 8
6 5 5 5 7 5 4 6 10 10 10 12 16 19 20 17 18 19 19 19 24 26 27 28 25 22 20 20 21 21 20 17 18 15 16 14 12 12 12 12 13 11 10 8
7 4 5 8 7 6 5 7 10 13 11 17 20 20 18 17 14 17 20 24 23 21 21 23 24 23 21 18 18 22 20 20 19 18 15 14 13 13 12 12 11 12 11 9
6 7 8 8 8 7 6 6 11 17 20 21 19 16 18 19 21 22 25 23 20 19 20 23 24 26 23 16 20 19 21 18 18 17 16 15 15 13 13 12 11 11 11 7
9 11 15 12 17 16 10 16 19 18 20 23 23 21 20 21 25 24 24 18 18 18 24 25 27 25 18 21 21 21 20 19 18 14 16 14 12 11 12 12 10 9 7 6
7 8 9 12 12 15 18 20 22 19 20 25 23 20 21 22 25 25 20 15 17 18 25 26 24 23 20 18 18 19 19 18 17 17 18 16 13 12 12 11 10 9 8 6
6 7 8 14 13 13 16 17 21 22 21 20 20 23 22 19 21 19 17 19 21 21 28 25 20 21 22 17 20 19 19 17 15 16 15 14 15 14 13 12 10 9 7 7
9 9 11 11 12 13 15 15 18 21 21 23 23 22 21 21 22 18 10 20 23 22 27 21 22 19 22 16 19 19 18 17 16 16 15 15 15 14 13 12 11 10 10 8
10 11 10 15 16 13 8 13 14 15 17 19 21 22 23 19 16 15 17 23 24 24 22 21 24 21 23 20 19 18 17 16 16 16 16 14 14 13 12 12 12 11 9 8
12 12 13 13 10 8 13 14 15 15 16 15 17 19 19 19 20 19 24 24 25 28 22 24 25 24 23 19 17 17 17 17 16 15 14 14 13 12 12 10 11 12 10 8
12 11 11 12 11 14 14 14 11 14 14 14 15 18 18 18 16 21 23 25 27 26 25 27 26 23 20 17 16 16 17 15 15 14 12 14 13 12 12 11 10 10 10 10
13 14 13 10 15 16 18 15 14 14 16 17 15 20 20 21 21 24 24 26 25 24 25 26 25 21 20 18 17 17 16 15 15 15 14 14 13 13 13 13 12 11 11 11
Wind_Direction
359 21 48 52 275 298 212 211 195 255 275 269 285 175 180 173 168 185 179 177 172 161 149 146 145 148 153 156 155 143 142 112 106 101 95 89 85 76 68 70 69 61 49 49
328 321 37 340 296 273 288 278 242 247 261 241 270 272 200 200 190 193 180 182 174 156 149 149 144 147 153 160 148 141 128 114 109 105 101 94 89 81 72 73 73 68 54 49
290 337 344 246 225 253 241 243 247 239 246 248 252 252 235 218 181 173 180 176 171 153 149 147 149 149 157 147 139 135 128 121 117 116 109 99 93 88 85 78 73 69 63 58
294 356 281 298 283 254 250 249 249 247 275 301 287 219 12 79 169 175 167 163 149 146 142 143 146 147 141 142 136 131 122 120 123 120 111 109 106 99 92 84 77 70 64 62
189 250 304 301 275 261 246 260 211 283 292 255 266 140 14 337 157 164 155 131 136 139 134 134 142 143 145 136 135 133 129 130 131 128 119 117 113 110 108 97 86 78 66 63
153 195 281 273 319 317 29 278 237 242 265 337 358 2 250 5 107 104 115 130 132 133 134 138 146 153 141 136 140 143 146 142 136 128 122 120 120 114 108 115 99 83 74 66
229 231 266 247 255 281 214 256 283 111 97 44 102 231 101 86 77 101 119 125 127 130 132 139 148 144 138 137 135 141 140 141 133 127 125 126 120 118 112 115 111 87 73 63
225 221 248 351 83 216 216 323 3 42 105 96 115 109 99 101 105 114 122 125 127 127 134 142 147 150 143 138 140 144 144 143 137 136 133 122 114 117 113 112 108 98 79 65
184 209 230 207 197 213 193 175 190 121 121 134 137 135 129 122 123 122 127 129 131 133 135 139 144 154 137 146 153 152 148 144 145 136 127 127 125 112 105 109 102 93 85 72
31 249 246 262 296 240 160 147 140 138 143 144 142 145 140 138 136 135 137 137 141 140 143 147 152 153 148 151 158 153 153 152 146 143 129 130 128 120 114 109 106 97 94 82
266 312 317 344 49 34 335 103 83 97 128 138 143 147 148 148 147 146 143 146 151 153 158 160 161 156 159 159 160 156 156 160 148 136 134 118 106 110 104 96 104 110 101 80
229 265 252 245 339 62 162 129 131 128 128 139 148 146 146 149 148 148 148 153 160 167 164 167 160 159 164 171 168 164 158 160 160 153 149 137 129 118 106 103 98 91 87 82
207 200 161 237 235 239 157 176 146 139 138 139 146 148 149 146 151 151 151 160 170 167 158 150 150 159 176 177 167 163 164 172 173 163 156 154 147 141 138 127 112 103 77 77
193 151 190 205 216 25 127 121 137 133 135 138 143 148 147 147 151 151 157 156 156 143 139 137 133 129 147 158 159 157 149 145 146 140 145 161 162 161 159 160 148 126 93 84
164 148 116 40 104 75 93 109 120 130 132 135 143 148 150 152 152 144 134 140 142 140 138 136 134 126 143 155 153 150 149 146 148 149 150 147 143 143 141 162 161 140 113 103
146 115 164 117 115 99 107 110 122 134 138 136 143 146 147 142 129 128 133 141 136 134 140 145 149 149 147 148 146 147 149 152 155 155 151 155 156 147 135 126 144 135 82 95
125 139 133 140 131 122 127 124 141 144 135 143 149 148 150 145 133 135 135 140 146 149 156 160 156 157 159 162 161 152 149 149 152 160 157 154 145 143 142 131 133 119 96 105
84 107 155 140 135 128 109 117 124 131 141 148 147 150 149 147 141 133 133 140 145 146 163 164 163 157 154 153 159 160 153 152 156 151 150 150 150 143 144 142 129 139 126 121
108 105 98 109 122 117 112 104 109 131 140 144 144 137 136 131 130 130 139 135 134 136 160 165 161 158 158 164 167 164 162 160 158 163 160 150 150 150 143 145 148 138 144 142
59 78 89 84 104 110 99 113 121 119 135 134 121 119 121 130 136 139 146 144 156 170 168 167 166 164 158 156 165 164 166 166 164 163 159 162 166 165 171 157 150 154 153 154
79 81 90 95 93 102 123 136 129 123 133 138 135 138 138 141 146 147 142 144 167 179 174 170 169 172 166 159 168 169 169 168 170 166 167 168 165 163 155 156 168 170 167 166
110 98 97 103 107 104 128 137 140 138 135 133 135 138 138 142 149 154 157 160 168 174 171 167 175 180 173 163 168 171 175 178 179 174 178 175 173 177 179 179 174 179 190 200
134 136 118 119 120 124 134 141 150 154 151 155 152 153 154 158 160 156 143 173 171 174 170 172 178 177 174 173 177 177 177 178 179 180 180 178 178 183 185 185 190 201 210 218
142 144 131 134 136 128 129 140 152 159 165 168 173 173 164 152 160 174 181 172 174 173 175 180 177 176 176 177 180 183 183 182 182 185 189 196 198 199 198 198 206 214 223 231
150 146 137 138 146 144 137 145 144 152 154 162 173 177 177 178 168 165 169 170 172 178 180 180 179 181 182 185 186 187 188 191 196 200 200 202 201 208 212 217 213 216 225 237
155 159 160 169 166 150 149 154 151 154 155 154 168 177 175 173 172 172 174 176 179 183 181 177 180 185 184 187 188 188 191 194 199 202 203 201 208 212 216 217 221 226 231 228
167 167 178 184 157 159 163 168 162 167 168 166 168 180 182 179 176 175 178 173 181 185 183 182 183 184 186 190 192 197 200 204 205 208 210 213 219 223 224 231 240 236 234 248